| time (UTC) | temp F | wind direction | speed knots | gust knots | rain 1hr in | rain 24hr in | rain mn in | humidity % | barometer mb |
| 20260505051504 | 59 | 149 | 0.0 | 0.0 | 0.00 | 0.00 | 0.00 | 54 | 1001.1 |
| 20260505041502 | 62 | 175 | 0.0 | 0.0 | 0.00 | 0.00 | 0.00 | 46 | 1000.1 |
| 20260505040002 | 62 | 153 | 0.0 | 0.0 | 0.00 | 0.00 | 0.00 | 46 | 999.9 |
| 20260505034505 | 61 | 196 | 0.0 | 0.0 | 0.00 | 0.00 | 0.00 | 44 | 999.8 |
| 20260505033001 | 62 | 181 | 0.0 | 0.0 | 0.00 | 0.00 | 0.00 | 43 | 999.6 |
| 20260505031601 | 62 | 181 | 0.0 | 0.0 | 0.00 | 0.00 | 0.00 | 42 | 999.3 |
| 20260505030100 | 63 | 181 | 0.0 | 0.0 | 0.00 | 0.00 | 0.00 | 40 | 999.1 |
| 20260505024559 | 64 | 181 | 0.0 | 0.0 | 0.00 | 0.00 | 0.00 | 38 | 998.9 |
| 20260505023059 | 65 | 182 | 0.0 | 0.0 | 0.00 | 0.00 | 0.00 | 37 | 998.8 |
| 20260505021559 | 67 | 193 | 0.0 | 0.0 | 0.00 | 0.00 | 0.00 | 36 | 998.7 |
| 20260505020058 | 68 | 173 | 0.0 | 0.0 | 0.00 | 0.00 | 0.00 | 34 | 998.6 |
| 20260505014623 | 69 | 178 | 0.0 | 0.0 | 0.00 | 0.00 | 0.00 | 34 | 998.5 |
| 20260505013057 | 69 | 194 | 0.0 | 0.0 | 0.00 | 0.00 | 0.00 | 34 | 998.4 |
| 20260505011604 | 69 | 186 | 0.0 | 0.0 | 0.00 | 0.00 | 0.00 | 33 | 998.6 |
| 20260505010057 | 70 | 188 | 1.7 | 0.0 | 0.00 | 0.00 | 0.00 | 32 | 998.6 |
| 20260505004554 | 71 | 216 | 0.9 | 0.0 | 0.00 | 0.00 | 0.00 | 30 | 998.7 |
| 20260505003053 | 72 | 163 | 1.7 | 0.0 | 0.00 | 0.00 | 0.00 | 30 | 998.8 |
| 20260505001604 | 72 | 250 | 1.7 | 0.0 | 0.00 | 0.00 | 0.00 | 29 | 999.0 |
| 20260505000115 | 72 | 249 | 1.7 | 0.0 | 0.00 | 0.00 | 0.00 | 30 | 999.0 |
| 20260504234607 | 72 | 250 | 4.3 | 0.0 | 0.00 | 0.00 | 0.00 | 28 | 999.0 |
| 20260504233102 | 72 | 256 | 3.5 | 0.0 | 0.00 | 0.00 | 0.00 | 31 | 999.2 |
| 20260504231549 | 72 | 252 | 3.5 | 0.0 | 0.00 | 0.00 | 0.00 | 31 | 999.1 |
| 20260504230049 | 71 | 209 | 6.1 | 0.0 | 0.00 | 0.00 | 0.00 | 32 | 999.1 |
| 20260504224605 | 72 | 240 | 4.3 | 0.0 | 0.00 | 0.00 | 0.00 | 32 | 999.1 |
| 20260504223048 | 73 | 278 | 3.5 | 0.0 | 0.00 | 0.00 | 0.00 | 31 | 999.1 |
| 20260504221547 | 74 | 303 | 2.6 | 0.0 | 0.00 | 0.00 | 0.00 | 26 | 999.1 |
| 20260504220046 | 75 | 288 | 0.0 | 0.0 | 0.00 | 0.00 | 0.00 | 24 | 999.1 |
| 20260504214544 | 75 | 302 | 0.9 | 0.0 | 0.00 | 0.00 | 0.00 | 27 | 999.4 |
| 20260504213100 | 75 | 294 | 0.0 | 0.0 | 0.00 | 0.00 | 0.00 | 27 | 999.7 |
| 20260504211540 | 74 | 271 | 0.9 | 0.0 | 0.00 | 0.00 | 0.00 | 28 | 1000.0 |
| 20260504210039 | 74 | 270 | 0.9 | 0.0 | 0.00 | 0.00 | 0.00 | 24 | 1000.1 |
| 20260504204536 | 75 | 333 | 0.0 | 0.0 | 0.00 | 0.00 | 0.00 | 29 | 1000.2 |
| 20260504203035 | 74 | 198 | 0.9 | 0.0 | 0.00 | 0.00 | 0.00 | 27 | 1000.4 |
| 20260504201534 | 73 | 306 | 0.9 | 0.0 | 0.00 | 0.00 | 0.00 | 29 | 1000.5 |
| 20260504200030 | 73 | 307 | 0.9 | 0.0 | 0.00 | 0.00 | 0.00 | 30 | 1000.7 |
| 20260504194528 | 72 | 268 | 0.9 | 0.0 | 0.00 | 0.00 | 0.00 | 28 | 1000.8 |
| 20260504193025 | 72 | 182 | 0.9 | 0.0 | 0.00 | 0.00 | 0.00 | 29 | 1001.1 |
| 20260504191524 | 72 | 298 | 0.9 | 0.0 | 0.00 | 0.00 | 0.00 | 28 | 1001.2 |
| 20260504190022 | 72 | 284 | 0.9 | 0.0 | 0.00 | 0.00 | 0.00 | 30 | 1001.4 |
| 20260504184521 | 72 | 284 | 0.9 | 0.0 | 0.00 | 0.00 | 0.00 | 31 | 1001.5 |
| 20260504183022 | 71 | 258 | 1.7 | 0.0 | 0.00 | 0.00 | 0.00 | 33 | 1001.7 |
| 20260504181516 | 71 | 216 | 0.0 | 0.0 | 0.00 | 0.00 | 0.00 | 31 | 1001.9 |
| 20260504180015 | 71 | 225 | 0.9 | 0.0 | 0.00 | 0.00 | 0.00 | 30 | 1002.1 |
| 20260504174512 | 70 | 129 | 0.0 | 0.0 | 0.00 | 0.00 | 0.00 | 34 | 1002.2 |
| 20260504173022 | 69 | 343 | 0.0 | 0.0 | 0.00 | 0.00 | 0.00 | 35 | 1002.3 |
| 20260504171510 | 69 | 186 | 0.0 | 0.0 | 0.00 | 0.00 | 0.00 | 36 | 1002.4 |
| 20260504081507 | 51 | 16 | 0.9 | 0.0 | 0.00 | 0.00 | 0.00 | 45 | 1002.7 |